[[{"header":{"parameterUnit":"m.s-1","parameterCategory":1,"la1":30.2992,"la2":30.254,"lo1":-89.0895,"lo2":-89.0443,"dy":0.0025,"dx":0.0025,"nx":19,"ny":19,"refTime":"2026-03-23T03:00:00:Z","depth":0,"parameterNumber":2,"parameterNumberName":"U-component_of_WINDS"},"data":[0,0,0,3.7319,3.7321,3.742,3.7421,3.7561,3.7562,0,0,0,0,0,0,0,0,0,0,0,3.7295,3.7296,3.7319,3.7321,3.742,3.7421,3.7561,3.7562,0,0,0,0,0,0,0,0,0,0,0,3.7294,3.7296,3.7297,3.7322,3.742,3.7421,3.7561,3.7481,0,0,0,0,0,0,0,0,0,0,3.7383,3.7365,3.7295,3.7297,3.7322,3.742,3.7421,3.7477,3.7486,3.7521,0,3.7551,0,3.7559,3.7573,3.7573,0,0,0,3.7318,3.7358,3.738,3.7297,3.7323,3.742,3.7375,3.7482,3.7492,3.7533,3.7553,3.7558,3.7561,3.7573,3.7574,3.7783,3.7784,0,0,3.7312,3.7316,3.7373,3.7386,3.7369,3.7371,3.7378,3.7488,3.7511,3.7553,3.7561,3.7564,3.7574,3.7576,3.7782,3.7783,0,0,0,3.7299,3.7312,3.7331,3.7381,3.7398,3.7374,3.7382,3.7506,3.7512,3.7562,3.7565,3.7575,3.7577,3.7781,3.7783,3.7843,0,0,0,3.7295,3.7304,3.7329,3.7332,3.7396,3.7453,3.7397,3.7504,3.7517,3.7565,3.7575,3.7579,3.7779,3.7782,3.7839,3.7872,0,0,0,3.7287,3.7303,3.7319,3.7332,3.7375,3.7451,3.7463,3.7507,3.7519,3.7573,3.7579,3.7779,3.7781,3.7835,3.7865,3.793,0,0,0,3.7278,3.7371,3.732,3.7425,3.7374,3.7487,3.7462,3.7546,3.76,3.7576,3.778,3.7782,3.7834,3.7861,3.7925,3.7985,3.801,0,0,3.7397,3.7385,3.7447,3.7404,3.7527,3.7471,3.7604,3.765,3.7652,3.774,3.7745,3.784,3.7865,3.7929,3.8145,3.8165,0,0,0,3.7486,3.753,3.7562,3.7613,3.7651,3.7687,3.7712,3.773,3.7804,3.7697,3.788,3.7895,3.7932,3.7961,3.7977,3.801,3.7795,3.7795,3.7795,3.7659,3.7657,3.776,3.7772,3.7822,3.7849,3.7891,3.792,3.7903,3.7947,3.7973,3.8104,3.8138,3.815,3.8185,3.8003,3.8003,3.8004,3.8004,3.7834,3.7898,3.7875,3.7967,3.7966,3.8044,3.8076,3.8062,3.8136,3.8083,3.8116,3.806,3.8172,3.8202,3.8008,3.8008,3.8007,3.8007,3.8006,3.7949,3.7979,3.7999,3.8076,3.8136,3.8145,3.8218,3.8215,3.8212,3.8244,3.8274,3.8273,3.8273,3.8258,3.8259,3.8259,3.826,3.826,3.826,3.8059,3.808,3.8141,3.8192,3.8226,3.8271,3.8302,3.8337,3.8375,3.8367,3.8367,3.8348,3.8182,3.8141,3.8267,3.8266,3.8265,3.8265,3.8264,3.824,3.8199,3.8294,3.8328,3.8389,3.8451,3.8446,3.8518,3.8546,3.8584,3.8558,3.8436,3.8423,3.841,3.8377,3.8556,3.8556,3.8556,3.8556,3.8337,3.8331,3.8429,3.8485,3.854,3.8546,3.8658,3.8684,3.8706,3.8724,3.8698,3.8653,3.8639,3.8635,3.8617,3.8586,3.8815,3.8815,3.8815,3.845,3.8449,3.8543,3.8562,3.861,3.8653,3.8758,3.8827,3.8842,3.8826,3.8739,3.8728,3.8656,3.8631,3.8612,3.8584,3.8527,0,0]},{"header":{"parameterUnit":"m.s-1","parameterCategory":1,"la1":30.2992,"la2":30.254,"lo1":-89.0895,"lo2":-89.0443,"dy":0.0025,"dx":0.0025,"nx":19,"ny":19,"refTime":"2026-03-23T03:00:00:Z","depth":0,"parameterNumber":3,"parameterNumberName":"V-component_of_WINDS"},"data":[0,0,0,-0.582,-0.582,-0.5831,-0.5831,-0.5843,-0.5843,0,0,0,0,0,0,0,0,0,0,0,-0.5813,-0.5812,-0.582,-0.582,-0.5831,-0.5831,-0.5843,-0.5843,0,0,0,0,0,0,0,0,0,0,0,-0.5813,-0.5812,-0.5812,-0.582,-0.5831,-0.5831,-0.5843,-0.5835,0,0,0,0,0,0,0,0,0,0,-0.5825,-0.5814,-0.5812,-0.5812,-0.582,-0.5831,-0.5831,-0.5835,-0.5836,-0.5836,0,-0.5833,0,-0.5838,-0.5843,-0.5843,0,0,0,-0.5823,-0.5814,-0.582,-0.5812,-0.582,-0.5831,-0.5827,-0.5836,-0.5836,-0.5837,-0.5833,-0.5834,-0.5838,-0.5843,-0.5843,-0.5831,-0.583,0,0,-0.5822,-0.5813,-0.582,-0.5821,-0.5817,-0.5826,-0.5827,-0.5836,-0.5832,-0.5833,-0.5834,-0.5838,-0.5843,-0.5843,-0.5831,-0.5831,0,0,0,-0.5818,-0.5812,-0.5818,-0.582,-0.5822,-0.5827,-0.5828,-0.5832,-0.5835,-0.5834,-0.5839,-0.5843,-0.5843,-0.5831,-0.5831,-0.5813,0,0,0,-0.5818,-0.581,-0.5818,-0.5812,-0.5822,-0.5827,-0.5823,-0.5834,-0.5836,-0.5839,-0.5843,-0.5843,-0.5831,-0.5831,-0.5814,-0.5805,0,0,0,-0.5813,-0.5809,-0.581,-0.5812,-0.5817,-0.5827,-0.583,-0.5835,-0.5838,-0.5843,-0.5843,-0.5831,-0.5831,-0.5814,-0.5807,-0.58,0,0,0,-0.5805,-0.5792,-0.5809,-0.5797,-0.5816,-0.5815,-0.583,-0.583,-0.5832,-0.5843,-0.5831,-0.5831,-0.5815,-0.5808,-0.5801,-0.5794,-0.5789,0,0,-0.5784,-0.579,-0.5783,-0.5799,-0.5793,-0.5814,-0.5806,-0.5817,-0.5826,-0.5829,-0.5829,-0.5813,-0.5807,-0.5801,-0.5768,-0.5764,0,0,0,-0.5774,-0.5769,-0.577,-0.5771,-0.578,-0.5787,-0.58,-0.5805,-0.5808,-0.5825,-0.5809,-0.5806,-0.5803,-0.5799,-0.5796,-0.5795,-0.5829,-0.5829,-0.5829,-0.573,-0.5743,-0.5735,-0.575,-0.5752,-0.5767,-0.577,-0.5779,-0.5791,-0.5787,-0.5788,-0.5767,-0.5762,-0.576,-0.5759,-0.5785,-0.5785,-0.5785,-0.5785,-0.5701,-0.5698,-0.5716,-0.5714,-0.5729,-0.5728,-0.5743,-0.5752,-0.5754,-0.5766,-0.5764,-0.5777,-0.5756,-0.5755,-0.5783,-0.5784,-0.5784,-0.5784,-0.5784,-0.5675,-0.5675,-0.5682,-0.5688,-0.5691,-0.5708,-0.571,-0.5723,-0.5735,-0.5733,-0.5737,-0.5737,-0.574,-0.5734,-0.5734,-0.5734,-0.5734,-0.5734,-0.5734,-0.5644,-0.5652,-0.5652,-0.5662,-0.5666,-0.5674,-0.5691,-0.5696,-0.5705,-0.5715,-0.5715,-0.5729,-0.5751,-0.5757,-0.5733,-0.5733,-0.5733,-0.5733,-0.5733,-0.5611,-0.5621,-0.562,-0.5625,-0.5639,-0.5643,-0.5661,-0.5671,-0.5677,-0.5678,-0.5693,-0.5708,-0.5714,-0.5717,-0.5722,-0.5689,-0.5689,-0.5689,-0.5689,-0.5589,-0.5594,-0.5597,-0.5604,-0.5613,-0.5629,-0.5631,-0.5645,-0.5662,-0.5667,-0.5674,-0.5682,-0.5684,-0.5689,-0.5692,-0.5697,-0.566,-0.5659,-0.5659,-0.557,-0.5576,-0.5574,-0.559,-0.5603,-0.5614,-0.5617,-0.5625,-0.5647,-0.5659,-0.5672,-0.5673,-0.5686,-0.5689,-0.5701,-0.5705,-0.5714,0,0]}]]